TimeIST,TemperatureF,Dew PointF,Humidity,Sea Level PressureIn,VisibilityMPH,Wind Direction,Wind SpeedMPH,Gust SpeedMPH,PrecipitationIn,Events,Conditions,WindDirDegrees,DateUTC
12:10 AM,66.2,53.6,64,29.98,2.2,Calm,Calm,-,N/A,,Haze,0,2012-12-07 18:40:00
1:10 AM,66.2,50.0,56,29.95,2.2,Calm,Calm,-,N/A,,Haze,0,2012-12-07 19:40:00
2:10 AM,64.4,50.0,59,29.95,2.2,Calm,Calm,-,N/A,,Haze,0,2012-12-07 20:40:00
2:30 AM,58,55,85,29.94,1,NNW,2.3,,,,Haze,340,2012-12-07 21:00:00
3:10 AM,68.0,53.6,60,29.92,2.2,NNW,2.3,-,N/A,,Haze,340,2012-12-07 21:40:00
5:10 AM,66.2,51.8,60,29.92,2.2,Calm,Calm,-,N/A,,Haze,0,2012-12-07 23:40:00
5:30 AM,58,54,80,29.95,1,Calm,Calm,,,,Haze,,2012-12-08 00:00:00
6:10 AM,60.8,53.6,77,29.95,2.2,Calm,Calm,-,N/A,,Haze,0,2012-12-08 00:40:00
7:10 AM,60.8,51.8,72,29.98,2.2,Calm,Calm,-,N/A,,Haze,0,2012-12-08 01:40:00
8:10 AM,68.0,55.4,64,29.98,2.5,Calm,Calm,-,N/A,,Haze,0,2012-12-08 02:40:00
8:30 AM,67,59,69,29.99,2,Calm,Calm,,,,Haze,,2012-12-08 03:00:00
11:10 AM,89.6,57.2,33,29.98,3.1,South,2.3,-,N/A,,Haze,180,2012-12-08 05:40:00
11:30 AM,87,66,40,29.91,2,South,2.3,,,,Haze,180,2012-12-08 06:00:00
12:10 PM,93.2,55.4,28,29.95,3.7,South,2.3,-,N/A,,Unknown,180,2012-12-08 06:40:00
1:10 PM,95.0,51.8,23,29.89,3.7,Calm,Calm,-,N/A,,Unknown,0,2012-12-08 07:40:00
2:10 PM,95.0,57.2,28,29.86,3.7,SSW,2.3,-,N/A,,Unknown,200,2012-12-08 08:40:00
2:30 PM,92,67,34,29.78,2,South,3.5,,,,Clear,180,2012-12-08 09:00:00
3:10 PM,93.2,59.0,32,29.83,3.7,South,4.6,-,N/A,,Unknown,180,2012-12-08 09:40:00
5:30 PM,80,67,55,29.83,2,Calm,Calm,,,,Haze,,2012-12-08 12:00:00
6:10 PM,82.4,57.2,42,29.89,2.5,Calm,Calm,-,N/A,,Haze,0,2012-12-08 12:40:00
7:10 PM,78.8,57.2,47,29.89,2.5,Calm,Calm,-,N/A,,Haze,0,2012-12-08 13:40:00
8:10 PM,77.0,57.2,50,29.92,2.5,Calm,Calm,-,N/A,,Haze,0,2012-12-08 14:40:00
8:30 PM,69,61,70,29.90,2,Calm,Calm,,,,Haze,,2012-12-08 15:00:00
9:10 PM,75.2,59.0,57,29.92,2.5,WSW,3.5,-,N/A,,Haze,250,2012-12-08 15:40:00
10:10 PM,71.6,59.0,64,29.92,3.1,Calm,Calm,-,N/A,,Haze,0,2012-12-08 16:40:00
11:10 PM,71.6,59.0,64,29.92,3.1,Calm,Calm,-,N/A,,Haze,0,2012-12-08 17:40:00
11:30 PM,65,60,78,29.91,2,Calm,Calm,,,,Haze,,2012-12-08 18:00:00